Location: Ponte Samoggia
(44.5667°N, 11.1333°E)
Time: 21:44:46
(UTC+00:00)

Resurs 1-4 Rocket - Pass Details

Date: 26 May 2022
Orbit: 800 x 813 km, 98.7° (Epoch: 29 June)

Event Time Altitude Azimuth Distance (km) Brightness Sun altitude
Rises 01:21:51 0° 10° (N) 3,321 6.6 -18.0°
Reaches altitude 10° 01:24:13 10° 6° (N) 2,387 5.5 -17.8°
Maximum altitude 01:29:22 56° 289° (WNW) 949 2.3 -17.3°
Enters shadow 01:31:58 28° 223° (SW) 1,460 2.9 -17.0°
